FW9306 Weather Reports


Display with metric or nautical units.
time (UTC)temp
F
wind
direction
speed
MPH
gust
MPH
rain 1hr
in
rain 24hr
in
rain mn
in
humidity
%
barometer
mb
20260906200933 95 304 6.0 8.0 0.00 0.00 0.00 34 1012.1
20260906200430 95 353 4.0 8.0 0.00 0.00 0.00 34 1012.1
20260906195929 95 307 4.0 5.0 0.00 0.00 0.00 34 1012.0
20260906195425 94 358 3.0 3.0 0.00 0.00 0.00 35 1012.3
20260906194921 93 44 4.0 5.0 0.00 0.00 0.00 36 1012.4
20260906194417 94 321 5.0 5.0 0.00 0.00 0.00 35 1012.4
20260906193913 93 282 7.0 10.0 0.00 0.00 0.00 35 1012.3
20260906193407 94 295 2.0 3.0 0.00 0.00 0.00 35 1012.4
20260906192903 94 322 3.0 5.0 0.00 0.00 0.00 34 1012.8
20260906192402 93 5 2.0 2.0 0.00 0.00 0.00 37 1012.8
20260906191902 92 304 3.0 3.0 0.00 0.00 0.00 37 1012.7
20260906191356 93 276 6.0 8.0 0.00 0.00 0.00 36 1012.5
20260906190856 92 304 6.0 7.0 0.00 0.00 0.00 36 1012.9
20260906190355 92 285 9.0 11.0 0.00 0.00 0.00 36 1012.9
20260906185850 92 307 6.0 9.0 0.00 0.00 0.00 37 1013.1
20260906185349 91 273 5.0 6.0 0.00 0.00 0.00 37 1013.1
20260906184849 91 280 7.0 9.0 0.00 0.00 0.00 37 1013.2
20260906184344 93 310 7.0 8.0 0.00 0.00 0.00 36 1013.1
20260906183839 91 208 5.0 6.0 0.00 0.00 0.00 38 1013.4
20260906183335 90 204 4.0 5.0 0.00 0.00 0.00 38 1013.5
20260906182830 91 202 7.0 9.0 0.00 0.00 0.00 38 1013.5
20260906182325 90 81 4.0 5.0 0.00 0.00 0.00 41 1013.4
20260906181820 90 273 5.0 7.0 0.00 0.00 0.00 39 1013.6
20260906181316 90 150 6.0 7.0 0.00 0.00 0.00 40 1013.7
20260906180812 90 248 4.0 5.0 0.00 0.00 0.00 39 1013.7
20260906180307 90 266 6.0 7.0 0.00 0.00 0.00 40 1014.0
20260906175803 91 262 5.0 7.0 0.00 0.00 0.00 38 1014.3
20260906175300 91 235 5.0 7.0 0.00 0.00 0.00 39 1013.8
20260906174758 90 200 1.0 1.0 0.00 0.00 0.00 39 1014.0
20260906174258 89 289 3.0 3.0 0.00 0.00 0.00 41 1014.0
20260906173753 89 225 5.0 6.0 0.00 0.00 0.00 40 1013.7
20260906173249 89 226 2.0 2.0 0.00 0.00 0.00 40 1013.7
20260906172748 89 289 3.0 3.0 0.00 0.00 0.00 41 1014.2
20260906172243 89 281 5.0 7.0 0.00 0.00 0.00 39 1014.2
20260906171738 89 228 3.0 3.0 0.00 0.00 0.00 41 1013.8
20260906171234 89 237 4.0 5.0 0.00 0.00 0.00 41 1014.2
20260906170729 89 240 4.0 5.0 0.00 0.00 0.00 42 1014.0
20260906170225 88 235 6.0 7.0 0.00 0.00 0.00 41 1014.0
20260906165721 88 265 5.0 6.0 0.00 0.00 0.00 41 1014.2
20260906165221 88 255 3.0 6.0 0.00 0.00 0.00 44 1014.2
20260906164715 87 210 1.0 1.0 0.00 0.00 0.00 43 1014.1
20260906164210 86 281 6.0 7.0 0.00 0.00 0.00 42 1014.1
20260906163706 87 216 1.0 2.0 0.00 0.00 0.00 42 1014.1
20260906163202 87 254 5.0 6.0 0.00 0.00 0.00 43 1014.0
20260906162659 87 207 1.0 1.0 0.00 0.00 0.00 41 1013.8
20260906162158 87 216 4.0 5.0 0.00 0.00 0.00 43 1014.0
20260906161653 86 263 4.0 5.0 0.00 0.00 0.00 44 1014.2
20260906161151 86 208 2.0 2.0 0.00 0.00 0.00 43 1014.2
20260906160645 86 230 3.0 3.0 0.00 0.00 0.00 44 1014.1
20260906160144 86 193 5.0 6.0 0.00 0.00 0.00 43 1014.2
20260906155642 86 225 5.0 6.0 0.00 0.00 0.00 43 1014.2
20260906155138 88 223 3.0 3.0 0.00 0.00 0.00 42 1014.3
20260906154633 86 201 3.0 5.0 0.00 0.00 0.00 42 1014.4
20260906154133 87 200 2.0 3.0 0.00 0.00 0.00 41 1014.2
20260906153631 87 216 1.0 1.0 0.00 0.00 0.00 42 1014.4
20260906153127 86 209 1.0 2.0 0.00 0.00 0.00 44 1014.6
20260906152621 85 198 3.0 3.0 0.00 0.00 0.00 45 1014.2
20260906152115 84 165 2.0 3.0 0.00 0.00 0.00 44 1014.4
20260906151610 84 145 2.0 2.0 0.00 0.00 0.00 46 1014.6
20260906151106 82 201 5.0 6.0 0.00 0.00 0.00 47 1014.3
20260906150601 82 206 1.0 1.0 0.00 0.00 0.00 49 1014.3
20260906150056 82 156 3.0 3.0 0.00 0.00 0.00 49 1014.5
20260906145555 81 126 2.0 3.0 0.00 0.00 0.00 51 1014.4
20260906145050 81 188 4.0 6.0 0.00 0.00 0.00 52 1014.4
20260906144544 81 178 3.0 5.0 0.00 0.00 0.00 53 1014.2
20260906144040 80 210 0.0 1.0 0.00 0.00 0.00 55 1014.7
20260906143534 80 222 1.0 1.0 0.00 0.00 0.00 55 1014.5
20260906143031 79 207 3.0 5.0 0.00 0.00 0.00 55 1014.6
20260906142525 79 203 5.0 6.0 0.00 0.00 0.00 55 1014.4
20260906142021 78 188 0.0 0.0 0.00 0.00 0.00 56 1014.3
20260906141519 78 135 1.0 1.0 0.00 0.00 0.00 56 1014.6
20260906141015 78 202 1.0 2.0 0.00 0.00 0.00 55 1014.3
20260906140509 78 196 0.0 1.0 0.00 0.00 0.00 55 1014.2
20260906140008 78 162 0.0 1.0 0.00 0.00 0.00 56 1014.2
20260906135505 78 202 3.0 3.0 0.00 0.00 0.00 55 1014.2
20260906135001 78 195 1.0 1.0 0.00 0.00 0.00 54 1014.0
20260906134457 78 176 0.0 0.0 0.00 0.00 0.00 55 1013.8
20260906133956 78 168 0.0 1.0 0.00 0.00 0.00 55 1013.8
20260906133453 78 204 1.0 1.0 0.00 0.00 0.00 54 1014.0
20260906132948 78 206 1.0 1.0 0.00 0.00 0.00 54 1013.8
20260906132443 78 210 1.0 2.0 0.00 0.00 0.00 54 1013.6
20260906131938 78 177 1.0 1.0 0.00 0.00 0.00 54 1013.6
20260906131434 77 170 0.0 0.0 0.00 0.00 0.00 54 1013.6
20260906130929 78 200 0.0 1.0 0.00 0.00 0.00 54 1013.8
20260906130429 78 186 2.0 2.0 0.00 0.00 0.00 54 1013.7
20260906125929 77 192 0.0 0.0 0.00 0.00 0.00 54 1013.5
20260906125426 77 176 1.0 1.0 0.00 0.00 0.00 55 1013.7
20260906124925 77 131 0.0 1.0 0.00 0.00 0.00 55 1013.6
20260906124422 77 174 1.0 1.0 0.00 0.00 0.00 56 1014.0
20260906123916 77 204 0.0 0.0 0.00 0.00 0.00 56 1013.5
20260906123415 77 189 1.0 1.0 0.00 0.00 0.00 56 1013.8
20260906122915 77 170 0.0 1.0 0.00 0.00 0.00 56 1014.0
20260906122410 77 181 3.0 3.0 0.00 0.00 0.00 56 1013.5
20260906121907 77 218 2.0 3.0 0.00 0.00 0.00 55 1013.3
20260906121403 77 205 1.0 1.0 0.00 0.00 0.00 56 1013.5
20260906120859 77 201 0.0 1.0 0.00 0.00 0.00 56 1013.6
20260906120354 77 220 1.0 1.0 0.00 0.00 0.00 56 1013.3
20260906115851 77 215 0.0 1.0 0.00 0.00 0.00 55 1013.5
20260906115346 77 195 0.0 1.0 0.00 0.00 0.00 56 1013.3
20260906114845 77 218 0.0 1.0 0.00 0.00 0.00 56 1013.3
20260906114340 77 175 4.0 6.0 0.00 0.00 0.00 56 1013.2
20260906113835 77 144 1.0 2.0 0.00 0.00 0.00 56 1013.2
20260906113334 77 182 5.0 7.0 0.00 0.00 0.00 56 1013.4
20260906112830 77 189 0.0 0.0 0.00 0.00 0.00 56 1013.1
20260906112326 77 154 1.0 1.0 0.00 0.00 0.00 56 1013.2
20260906111825 77 122 2.0 2.0 0.00 0.00 0.00 56 1013.1
20260906111320 77 191 3.0 5.0 0.00 0.00 0.00 56 1013.2
20260906110815 78 175 1.0 1.0 0.00 0.00 0.00 55 1013.2
20260906110311 78 229 3.0 3.0 0.00 0.00 0.00 54 1013.0
20260906105809 78 188 2.0 3.0 0.00 0.00 0.00 54 1013.2
20260906105306 78 196 0.0 1.0 0.00 0.00 0.00 54 1013.2
20260906104801 78 190 0.0 0.0 0.00 0.00 0.00 54 1013.0
20260906104300 78 197 3.0 5.0 0.00 0.00 0.00 54 1013.2
20260906103758 78 208 0.0 1.0 0.00 0.00 0.00 54 1013.2
20260906103257 78 198 1.0 1.0 0.00 0.00 0.00 54 1013.1
20260906102753 78 198 0.0 1.0 0.00 0.00 0.00 54 1013.4
20260906102252 78 185 1.0 1.0 0.00 0.00 0.00 54 1013.2
20260906101748 78 232 2.0 2.0 0.00 0.00 0.00 54 1012.8
20260906101242 78 165 2.0 2.0 0.00 0.00 0.00 54 1012.5
20260906100738 78 168 0.0 1.0 0.00 0.00 0.00 55 1012.9
20260906100237 78 143 0.0 1.0 0.00 0.00 0.00 55 1012.9
20260906095733 78 129 1.0 1.0 0.00 0.00 0.00 55 1012.9
20260906095228 78 169 1.0 1.0 0.00 0.00 0.00 55 1012.7
20260906094726 78 188 0.0 0.0 0.00 0.00 0.00 55 1012.9
20260906094216 78 197 2.0 2.0 0.00 0.00 0.00 55 1013.0
20260906093713 78 201 0.0 1.0 0.00 0.00 0.00 56 1012.8
20260906093208 78 174 0.0 0.0 0.00 0.00 0.00 56 1012.4
20260906092703 78 170 0.0 0.0 0.00 0.00 0.00 55 1012.7
20260906092202 78 190 0.0 0.0 0.00 0.00 0.00 55 1012.9
20260906091658 78 175 0.0 0.0 0.00 0.00 0.00 55 1012.5
20260906091155 78 194 1.0 2.0 0.00 0.00 0.00 55 1012.7
20260906090651 78 190 1.0 1.0 0.00 0.00 0.00 55 1012.8
20260906090150 79 191 0.0 1.0 0.00 0.00 0.00 55 1012.9
20260906085649 78 182 1.0 1.0 0.00 0.00 0.00 55 1012.5
20260906085143 78 259 0.0 0.0 0.00 0.00 0.00 56 1012.8
20260906084638 79 179 1.0 1.0 0.00 0.00 0.00 56 1012.8
20260906084137 79 195 3.0 3.0 0.00 0.00 0.00 56 1012.9
20260906083632 79 193 3.0 5.0 0.00 0.00 0.00 55 1012.9
20260906083127 80 205 3.0 3.0 0.00 0.00 0.00 54 1013.0
20260906082623 81 200 3.0 3.0 0.00 0.00 0.00 53 1012.9
20260906082118 81 201 2.0 3.0 0.00 0.00 0.00 52 1012.8
20260906081614 80 193 0.0 0.0 0.00 0.00 0.00 53 1012.9
20260906081109 81 189 1.0 1.0 0.00 0.00 0.00 52 1013.0
20260906080605 81 190 0.0 0.0 0.00 0.00 0.00 52 1013.0
20260906075555 81 198 0.0 1.0 0.00 0.00 0.00 53 1013.3
20260906075050 81 157 2.0 3.0 0.00 0.00 0.00 53 1013.2
20260906074545 80 207 2.0 2.0 0.00 0.00 0.00 53 1013.1
20260906074043 81 190 1.0 1.0 0.00 0.00 0.00 53 1013.3
20260906073538 81 201 2.0 2.0 0.00 0.00 0.00 52 1013.3
20260906073034 81 191 1.0 1.0 0.00 0.00 0.00 52 1013.2
20260906072529 81 192 0.0 0.0 0.00 0.00 0.00 52 1013.3
20260906072025 81 190 0.0 0.0 0.00 0.00 0.00 52 1013.5
20260906071521 81 179 0.0 0.0 0.00 0.00 0.00 52 1013.4
20260906071016 81 146 1.0 1.0 0.00 0.00 0.00 51 1013.2
20260906070512 81 117 2.0 2.0 0.00 0.00 0.00 51 1013.5
20260906070008 81 160 0.0 0.0 0.00 0.00 0.00 51 1013.4
20260906065502 81 178 1.0 1.0 0.00 0.00 0.00 51 1013.5
20260906064957 82 192 0.0 1.0 0.00 0.00 0.00 51 1013.3
20260906064454 82 192 2.0 2.0 0.00 0.00 0.00 50 1013.1
20260906063954 82 187 0.0 0.0 0.00 0.00 0.00 49 1013.2
20260906063449 82 128 1.0 1.0 0.00 0.00 0.00 50 1013.3
20260906062949 82 181 0.0 0.0 0.00 0.00 0.00 50 1013.3
20260906062444 82 141 2.0 3.0 0.00 0.00 0.00 50 1013.6
20260906061939 83 176 0.0 0.0 0.00 0.00 0.00 49 1013.1
20260906061435 83 176 0.0 0.0 0.00 0.00 0.00 48 1013.4
20260906060930 83 183 0.0 0.0 0.00 0.00 0.00 48 1013.2
20260906060427 83 177 0.0 1.0 0.00 0.00 0.00 48 1013.4
20260906055923 84 189 0.0 0.0 0.00 0.00 0.00 47 1013.5
20260906055419 84 139 1.0 1.0 0.00 0.00 0.00 47 1013.3
20260906054914 83 166 1.0 2.0 0.00 0.00 0.00 48 1013.2
20260906054408 84 190 0.0 0.0 0.00 0.00 0.00 47 1013.4
20260906053905 84 192 0.0 0.0 0.00 0.00 0.00 47 1013.5
20260906053400 85 178 0.0 0.0 0.00 0.00 0.00 46 1013.3
20260906052856 85 192 0.0 0.0 0.00 0.00 0.00 45 1013.4
20260906052352 85 200 0.0 0.0 0.00 0.00 0.00 45 1013.4
20260906051849 86 182 0.0 0.0 0.00 0.00 0.00 45 1013.5
20260906051348 86 184 1.0 2.0 0.00 0.00 0.00 44 1013.3
20260906050844 85 192 1.0 1.0 0.00 0.00 0.00 45 1013.6
20260906050339 86 213 0.0 0.0 0.00 0.00 0.00 44 1013.5
20260906045838 86 296 1.0 1.0 0.00 0.00 0.00 43 1013.4
20260906045332 86 284 1.0 1.0 0.00 0.00 0.00 43 1013.6
20260906044828 87 198 0.0 0.0 0.00 0.00 0.00 43 1013.5
20260906044323 87 236 1.0 2.0 0.00 0.00 0.00 42 1013.5
20260906043819 87 342 1.0 1.0 0.00 0.00 0.00 42 1013.5
20260906043315 87 241 1.0 1.0 0.00 0.00 0.00 42 1013.3
20260906042814 87 203 0.0 1.0 0.00 0.00 0.00 43 1013.4
20260906042314 87 246 2.0 2.0 0.00 0.00 0.00 42 1013.4
20260906041809 88 215 1.0 1.0 0.00 0.00 0.00 42 1013.6
20260906041304 88 309 1.0 2.0 0.00 0.00 0.00 41 1013.5
20260906040759 88 322 1.0 1.0 0.00 0.00 0.00 41 1013.3
20260906040255 88 172 1.0 2.0 0.00 0.00 0.00 41 1013.4
20260906035750 88 310 3.0 5.0 0.00 0.00 0.00 41 1013.5
20260906035245 89 244 1.0 1.0 0.00 0.00 0.00 41 1013.6
20260906034746 88 318 1.0 2.0 0.00 0.00 0.00 41 1013.4
20260906034240 89 296 1.0 2.0 0.00 0.00 0.00 41 1013.3
20260906033737 89 242 2.0 2.0 0.00 0.00 0.00 41 1013.5
20260906033236 89 263 1.0 1.0 0.00 0.00 0.00 41 1013.2
20260906032733 89 10 4.0 5.0 0.00 0.00 0.00 41 1013.3
20260906032232 89 205 1.0 2.0 0.00 0.00 0.00 40 1012.9
20260906031727 89 342 1.0 2.0 0.00 0.00 0.00 40 1013.1
20260906031223 89 230 1.0 1.0 0.00 0.00 0.00 40 1013.3
20260906030723 89 330 2.0 2.0 0.00 0.00 0.00 40 1013.1
20260906030218 89 345 4.0 6.0 0.00 0.00 0.00 40 1013.0
20260906025717 89 197 1.0 1.0 0.00 0.00 0.00 40 1013.0
20260906025212 89 282 2.0 2.0 0.00 0.00 0.00 40 1012.7
20260906024711 89 2 2.0 2.0 0.00 0.00 0.00 40 1012.4
20260906024210 90 311 4.0 7.0 0.00 0.00 0.00 39 1012.7
20260906023706 90 352 3.0 3.0 0.00 0.00 0.00 39 1012.8
20260906023201 90 309 2.0 2.0 0.00 0.00 0.00 39 1012.8
20260906022656 90 337 5.0 6.0 0.00 0.00 0.00 39 1012.5
20260906022152 90 332 2.0 3.0 0.00 0.00 0.00 39 1012.4
20260906021647 90 320 6.0 7.0 0.00 0.00 0.00 38 1012.4
20260906021146 90 22 3.0 3.0 0.00 0.00 0.00 39 1012.3
20260906020641 90 321 5.0 7.0 0.00 0.00 0.00 40 1012.5
20260906020136 90 264 3.0 5.0 0.00 0.00 0.00 39 1012.3
20260906015630 90 325 5.0 6.0 0.00 0.00 0.00 38 1012.2
20260906015128 90 300 6.0 7.0 0.00 0.00 0.00 39 1012.4
20260906014623 91 315 5.0 7.0 0.00 0.00 0.00 39 1012.3
20260906014120 91 283 3.0 5.0 0.00 0.00 0.00 39 1012.3
20260906013614 91 326 3.0 3.0 0.00 0.00 0.00 39 1012.4
20260906013110 91 342 3.0 3.0 0.00 0.00 0.00 39 1012.3
20260906012604 91 297 3.0 5.0 0.00 0.00 0.00 39 1012.1
20260906012059 91 317 6.0 7.0 0.00 0.00 0.00 38 1012.2
20260906011555 91 323 3.0 6.0 0.00 0.00 0.00 38 1012.1
20260906011055 91 337 6.0 9.0 0.00 0.00 0.00 38 1012.4
20260906010550 92 289 5.0 5.0 0.00 0.00 0.00 38 1012.2
20260906010046 91 334 9.0 11.0 0.00 0.00 0.00 39 1012.2
20260906005545 92 311 5.0 8.0 0.00 0.00 0.00 38 1012.2
20260906005045 93 262 5.0 6.0 0.00 0.00 0.00 37 1012.4
20260906004544 93 193 7.0 9.0 0.00 0.00 0.00 37 1012.5
20260906004039 92 180 9.0 11.0 0.00 0.00 0.00 37 1012.1
20260906003534 93 313 4.0 6.0 0.00 0.00 0.00 40 1012.3
20260906003030 94 307 9.0 10.0 0.00 0.00 0.00 35 1012.4
20260906002525 94 258 11.0 11.0 0.00 0.00 0.00 35 1012.3
20260906002020 94 126 8.0 8.0 0.00 0.00 0.00 35 1012.5
20260906001515 94 318 6.0 8.0 0.00 0.00 0.00 35 1012.2
20260906001010 94 277 3.0 5.0 0.00 0.00 0.00 35 1012.4
20260906000506 94 330 7.0 9.0 0.00 0.00 0.00 34 1012.1
20260906000000 94 326 7.0 8.0 0.00 0.00 0.00 34 1012.3
20260905235500 94 345 4.0 5.0 0.00 0.00 0.00 35 1012.3
20260905234955 95 317 8.0 13.0 0.00 0.00 0.00 35 1012.4
20260905234450 95 282 8.0 13.0 0.00 0.00 0.00 34 1012.4
20260905233944 94 323 8.0 9.0 0.00 0.00 0.00 35 1012.1
20260905233440 95 302 5.0 8.0 0.00 0.00 0.00 34 1012.2
20260905232938 95 324 6.0 7.0 0.00 0.00 0.00 34 1012.2
20260905232435 95 315 9.0 11.0 0.00 0.00 0.00 34 1012.4
20260905231930 96 323 4.0 5.0 0.00 0.00 0.00 33 1012.0
20260905231426 95 327 5.0 7.0 0.00 0.00 0.00 34 1012.3
20260905230922 95 222 6.0 7.0 0.00 0.00 0.00 34 1012.3
20260905230421 95 337 4.0 5.0 0.00 0.00 0.00 34 1012.1
20260905225919 95 343 5.0 8.0 0.00 0.00 0.00 35 1012.5
20260905225414 94 211 6.0 7.0 0.00 0.00 0.00 34 1012.3
20260905224909 95 279 10.0 11.0 0.00 0.00 0.00 34 1012.4
20260905224405 95 282 7.0 7.0 0.00 0.00 0.00 34 1012.5
20260905223859 96 326 6.0 7.0 0.00 0.00 0.00 33 1012.4
20260905223357 95 235 10.0 11.0 0.00 0.00 0.00 34 1012.3
20260905222851 95 325 8.0 9.0 0.00 0.00 0.00 34 1012.4
20260905222350 95 337 5.0 6.0 0.00 0.00 0.00 34 1012.7
20260905221847 94 50 3.0 3.0 0.00 0.00 0.00 35 1012.5
20260905221343 95 279 7.0 8.0 0.00 0.00 0.00 35 1012.5
20260905220839 95 217 2.0 2.0 0.00 0.00 0.00 35 1012.7
20260905220335 95 355 10.0 11.0 0.00 0.00 0.00 34 1012.9
20260905215834 95 309 3.0 5.0 0.00 0.00 0.00 34 1012.7
20260905215330 95 304 7.0 8.0 0.00 0.00 0.00 35 1013.0
20260905214826 95 197 9.0 11.0 0.00 0.00 0.00 35 1013.0
20260905214321 95 301 7.0 8.0 0.00 0.00 0.00 34 1013.0
20260905213816 95 255 3.0 5.0 0.00 0.00 0.00 34 1013.1
20260905213312 94 304 4.0 6.0 0.00 0.00 0.00 35 1013.0
20260905212807 95 287 6.0 7.0 0.00 0.00 0.00 34 1013.2
20260905212307 95 35 2.0 2.0 0.00 0.00 0.00 35 1013.2
20260905211801 95 293 5.0 6.0 0.00 0.00 0.00 34 1013.5
20260905211256 94 31 3.0 3.0 0.00 0.00 0.00 34 1013.6
20260905210753 94 244 8.0 8.0 0.00 0.00 0.00 35 1013.6
20260905210252 94 246 7.0 8.0 0.00 0.00 0.00 34 1013.5
20260905205751 96 331 3.0 3.0 0.00 0.00 0.00 33 1013.8
20260905205246 94 322 2.0 2.0 0.00 0.00 0.00 34 1013.7
20260905204746 95 214 8.0 9.0 0.00 0.00 0.00 33 1013.6
20260905204242 94 326 3.0 3.0 0.00 0.00 0.00 34 1013.7
20260905203741 94 309 4.0 5.0 0.00 0.00 0.00 35 1013.8
20260905203237 93 292 5.0 5.0 0.00 0.00 0.00 36 1014.0
20260905202732 93 313 4.0 5.0 0.00 0.00 0.00 36 1014.2
20260905202227 94 253 5.0 6.0 0.00 0.00 0.00 35 1014.3
20260905201723 95 189 2.0 2.0 0.00 0.00 0.00 34 1014.3